Regional Weather Roundup
Issued by NWS

Home | Current Version | Previous Version | Graphics & Text | Print | Product List | Glossary Off
Versions: 1 2 3 4 5 6 7 8 9 10 11 12 13 14 15 16 17 18 19 20 21 22 23 24 25 26 27 28 29 30 31 32 33 34 35 36 37 38 39 40 41 42 43 44 45 46 47 48 49 50

374
ASUS43 KTOP 231308
RWRKS

WEATHER ROUNDUP FOR KANSAS
NATIONAL WEATHER SERVICE GOODLAND KS
800 AM CDT TUE AUG 23 2016

NOTE:  "FAIR" INDICATES FEW OR NO CLOUDS BELOW 12,000 FEET WITH NO
SIGNIFICANT WEATHER AND/OR OBSTRUCTIONS TO VISIBILITY.

KSZ001>006-013>018-027>032-041>047-231400-
NORTHWEST KANSAS

CITY           SKY/WX    TMP DP  RH WIND       PRES   REMARKS
GOODLAND       CLEAR     61  53  75 SW9       29.86R
HAYS           SUNNY     72  63  73 S18G24    29.87S
HILL CITY      MOSUNNY   72  66  81 S8        29.86S
RUSSELL        MOSUNNY   73  68  84 S18G25    29.88S
$$

KSZ061>065-074>080-084>089-231400-
SOUTHWEST KANSAS

CITY           SKY/WX    TMP DP  RH WIND       PRES   REMARKS
DODGE CITY     SUNNY     70  67  90 S14       29.93S
ELKHART          N/A     68  58  70 S13         N/A
GARDEN CITY    CLEAR     68  62  81 S14       29.92R
GREAT BEND     CLOUDY    73  63  68 S21       29.91S
LIBERAL        CLEAR     70  61  73 S12       29.96S
PRATT          PTSUNNY   69  66  90 S15       29.97R
$$

KSZ066>073-081>083-090>101-231400-
SOUTHEAST KANSAS

CITY           SKY/WX    TMP DP  RH WIND       PRES   REMARKS
CHANUTE        CLOUDY    74  70  87 S9        30.06R
COFFEYVILLE    CLOUDY    75  72  90 S9        30.06S
HUTCHINSON     CLOUDY    75  71  87 S15G24    29.96S
NEWTON         CLOUDY    74  71  91 S20       29.99F
PARSONS        CLOUDY    75  71  87 S7        30.07S
WICHITA INTL   CLOUDY    75  72  90 S16       29.99S
WICHITA JABRA  CLOUDY    74  72  93 S15G23    30.00R
WICHITA MCCONL CLOUDY    74  71  89 S17G24    30.01R
WINFIELD       PTSUNNY   75  72  90 S15       30.03R
$$

KSZ007>012-019>026-033>040-048>060-102>105-231400-
NORTHEAST KANSAS

CITY           SKY/WX    TMP DP  RH WIND       PRES   REMARKS
CONCORDIA      MOSUNNY   72  69  90 S18G26    29.90F
EMPORIA        CLOUDY    72  70  93 S17G23    30.02R
LAWRENCE       CLOUDY    70  67  90 SE10      30.04S
MANHATTAN      CLOUDY    74  70  87 S9        29.96S
MARYSVILLE     CLOUDY    72  70  94 S13G18    29.95F
OLATHE IND     CLOUDY    71  68  90 S10       30.06S
OLATHE EXE     CLOUDY    67  64  90 SE7       30.07R
SALINA         PTSUNNY   76  71  85 S16       29.93S
TOPEKA BILLARD CLOUDY    72  68  87 SE9       30.02R
TOPEKA FORBES  CLOUDY    73  68  84 SE9       30.02S
$$




USA.gov is the U.S. government's official web portal to all federal, state and local government web resources and services.